This is the latest recevied weather packets stored in our database for station/object YD2CLX-13. If no packets are shown the sender has not sent any weather packets the latest 10 day(s).
| Time | Temp. | Humidity | Pressure | Rain* | Wind** | Luminosity | Snow |
|---|---|---|---|---|---|---|---|
| 1777213311 | 10.56° C | 66% | 799 hPa | 0 mm | - | - | - |
| 1777212704 | 10.56° C | 66% | 799 hPa | 0 mm | - | - | - |
| 1777212095 | 10.56° C | 66% | 799 hPa | 0 mm | - | - | - |
| 1777211487 | 10.56° C | 66% | 798.9 hPa | 0 mm | - | - | - |
| 1777210879 | 10.56° C | 65% | 798.8 hPa | 0 mm | - | - | - |
| 1777210272 | 10.56° C | 66% | 798.8 hPa | 0 mm | - | - | - |
| 1777209664 | 10° C | 65% | 798.8 hPa | 0 mm | - | - | - |
| 1777209056 | 10.56° C | 65% | 798.7 hPa | 0 mm | - | - | - |
| 1777208447 | 10.56° C | 65% | 798.5 hPa | 0 mm | - | - | - |
| 1777207839 | 10.56° C | 65% | 798.2 hPa | 0 mm | - | - | - |
| 1777207229 | 10.56° C | 65% | 798.3 hPa | 0 mm | - | - | - |
| 1777206619 | 11.11° C | 65% | 798.4 hPa | 0 mm | - | - | - |
| 1777206010 | 10.56° C | 65% | 798.2 hPa | 0 mm | - | - | - |
| 1777204795 | 10.56° C | 65% | 797.9 hPa | 0 mm | - | - | - |
| 1777204187 | 10.56° C | 64% | 797.9 hPa | 0 mm | - | - | - |
| 1777203579 | 10.56° C | 65% | 797.8 hPa | 0 mm | - | - | - |
| 1777202969 | 11.11° C | 64% | 797.6 hPa | 0 mm | - | - | - |
| 1777202359 | 10.56° C | 64% | 797.3 hPa | 0 mm | - | - | - |
| 1777201751 | 11.11° C | 64% | 797.2 hPa | 0 mm | - | - | - |
| 1777201140 | 11.11° C | 64% | 797.3 hPa | 0 mm | - | - | - |
| 1777200533 | 11.11° C | 64% | 797.2 hPa | 0 mm | - | - | - |
| 1777199924 | 11.11° C | 63% | 797.3 hPa | 0 mm | - | - | - |
| 1777199314 | 11.67° C | 63% | 797.2 hPa | 0 mm | - | - | - |
| 1777198705 | 12.22° C | 63% | 797.1 hPa | 0 mm | - | - | - |
| 1777198096 | 12.22° C | 63% | 796.9 hPa | 0 mm | - | - | - |
* Rain latest hour (hover to see other rain measurements)
** Current wind speed in m/s (hover to see current wind gust speed)